User: anonymous   Login
Location: Unspecified
(0.0000°N, 0.0000°E)
Time: 01:51:53
(UTC+00:00)
Language:

STARLINK-5987 - Orbit

View from above orbital plane
View from above orbital plane
View from above satellite
View from above satellite

Ground track
Ground track

The orbit is defined by the following mean orbital elements,

1 56455U          26145.44237508 +.00000000 +00000-0 +30825-4 0 00001
2 56455  69.9990 310.9013 0002859 267.6288  92.4544 14.98328363    04
Epoch (UTC): 25 May 2026 10:37:01
Eccentricity: 0.0002859
inclination: 69.9990°
perigee height: 570 km
apogee height: 574 km
right ascension of ascending node: 310.9013°
argument of perigee: 267.6288°
revolutions per day: 14.98328363
mean anomaly at epoch: 92.4544°

The dashed part of the orbit path shows where the satellite is in the earth's shadow,  

DLR